GW4853 Weather Reports


Display with metric or nautical units.
time (UTC)temp
F
wind
direction
speed
MPH
gust
MPH
rain 1hr
in
rain 24hr
in
rain mn
in
humidity
%
barometer
mb
20260506212936 63 326 1.0 2.0 0.00 0.68 0.68 71 1010.9
20260506212432 62 340 0.0 6.0 0.00 0.68 0.68 69 1010.8
20260506211927 62 244 0.0 1.0 0.00 0.68 0.68 71 1011.0
20260506211423 62 333 0.0 1.0 0.00 0.68 0.68 71 1010.6
20260506210921 63 272 0.0 1.0 0.00 0.68 0.68 70 1010.9
20260506210417 63 299 0.0 2.0 0.00 0.68 0.68 70 1010.9
20260506205914 63 252 0.0 2.0 0.00 0.68 0.68 69 1011.0
20260506205410 63 338 1.0 2.0 0.00 0.68 0.68 69 1011.0
20260506204907 63 325 1.0 1.0 0.00 0.68 0.68 70 1010.9
20260506204404 63 300 0.0 2.0 0.00 0.68 0.68 69 1011.1
20260506203902 63 222 2.0 3.0 0.00 0.68 0.68 67 1011.0
20260506203359 63 342 1.0 2.0 0.00 0.68 0.68 70 1011.0
20260506202855 62 315 1.0 2.0 0.00 0.68 0.68 72 1010.9
20260506202353 62 258 1.0 2.0 0.00 0.68 0.68 70 1010.9
20260506201849 63 356 2.0 4.0 0.00 0.68 0.68 68 1010.8
20260506201347 63 319 3.0 4.0 0.00 0.68 0.68 69 1010.5
20260506200843 62 3 0.0 2.0 0.00 0.68 0.68 71 1010.7
20260506200339 62 356 2.0 3.0 0.00 0.68 0.68 73 1010.8
20260506195835 61 348 1.0 2.0 0.00 0.68 0.68 75 1010.8
20260506195333 60 39 2.0 7.0 0.00 0.68 0.68 74 1010.9
20260506194830 61 307 1.0 2.0 0.00 0.68 0.68 77 1010.6
20260506194326 61 326 2.0 2.0 0.00 0.68 0.68 76 1010.7
20260506193824 61 308 1.0 3.0 0.00 0.68 0.68 75 1010.7
20260506193321 60 351 0.0 2.0 0.00 0.68 0.68 77 1010.5
20260506192817 60 10 3.0 3.0 0.00 0.68 0.68 77 1010.8
20260506192314 60 316 1.0 3.0 0.00 0.68 0.68 76 1010.9
20260506191811 60 322 2.0 2.0 0.00 0.68 0.68 78 1010.9
20260506191307 60 322 0.0 3.0 0.00 0.68 0.68 81 1010.9
20260506190804 60 339 0.0 6.0 0.00 0.68 0.68 78 1011.0
20260506190301 60 270 1.0 2.0 0.00 0.68 0.68 79 1010.7
20260506185758 59 330 2.0 6.0 0.00 0.68 0.68 78 1010.8
20260506185254 60 313 2.0 2.0 0.00 0.68 0.68 79 1010.9
20260506184751 59 326 0.0 1.0 0.00 0.68 0.68 80 1010.6
20260506184249 60 307 1.0 3.0 0.00 0.68 0.68 78 1010.9
20260506183746 60 29 1.0 1.0 0.00 0.68 0.68 80 1010.5
20260506183246 59 3 0.0 2.0 0.00 0.68 0.68 80 1010.6
20260506182743 58 348 1.0 4.0 0.00 0.68 0.68 81 1010.7
20260506182241 59 296 1.0 3.0 0.00 0.68 0.68 80 1010.7
20260506181738 58 357 2.0 4.0 0.00 0.68 0.68 81 1010.7
20260506181236 58 331 1.0 3.0 0.00 0.68 0.68 81 1010.8
20260506180733 58 313 1.0 3.0 0.00 0.68 0.68 82 1011.0
20260506180233 57 325 1.0 2.0 0.00 0.68 0.68 84 1010.7
20260506175730 57 357 0.0 1.0 0.00 0.68 0.68 83 1010.9
20260506175227 58 17 2.0 6.0 0.00 0.68 0.68 83 1010.9
20260506174725 58 336 4.0 7.0 0.00 0.68 0.68 82 1011.0
20260506174221 58 299 2.0 3.0 0.00 0.68 0.68 84 1010.9
20260506173719 57 293 3.0 6.0 0.00 0.68 0.68 84 1010.8
20260506173216 57 339 4.0 6.0 0.00 0.68 0.68 86 1011.0
20260506172713 57 280 3.0 6.0 0.00 0.68 0.68 86 1011.2
20260506172209 56 359 2.0 6.0 0.00 0.68 0.68 87 1011.3
20260506171707 55 318 2.0 3.0 0.00 0.68 0.68 88 1011.2
20260506171204 55 0 4.0 6.0 0.00 0.68 0.68 89 1011.2
20260506170702 54 1 0.0 6.0 0.00 0.68 0.68 90 1011.1
20260506170158 54 337 3.0 6.0 0.00 0.68 0.68 91 1011.0
20260506165656 54 5 3.0 6.0 0.00 0.68 0.68 92 1010.7
20260506165153 54 342 2.0 4.0 0.00 0.68 0.68 92 1010.9
20260506164650 54 345 1.0 3.0 0.00 0.68 0.68 93 1010.9
20260506164148 53 286 2.0 7.0 0.00 0.68 0.68 94 1011.0
20260506163643 53 7 2.0 3.0 0.00 0.68 0.68 94 1011.0
20260506163139 53 310 7.0 9.0 0.00 0.68 0.68 93 1011.0
20260506162635 53 351 1.0 7.0 0.00 0.68 0.68 94 1011.3
20260506162133 53 312 4.0 7.0 0.00 0.68 0.68 94 1011.3
20260506161630 53 286 3.0 6.0 0.00 0.68 0.68 95 1011.1
20260506161126 53 334 2.0 6.0 0.00 0.68 0.68 95 1010.9
20260506160624 53 355 2.0 7.0 0.00 0.68 0.68 96 1011.2
20260506160121 53 327 2.0 6.0 0.00 0.68 0.68 96 1010.8
20260506155620 53 3 2.0 4.0 0.00 0.68 0.68 96 1010.9
20260506155116 52 334 3.0 4.0 0.00 0.68 0.68 97 1010.1
20260506153218 53 340 2.0 7.0 0.00 0.68 0.68 97 1010.0
20260506152715 52 14 2.0 3.0 0.00 0.68 0.68 97 1010.2
20260506152213 52 306 2.0 4.0 0.00 0.68 0.68 97 1010.1
20260506151712 52 337 5.0 7.0 0.00 0.68 0.68 97 1009.9
20260506151208 52 330 2.0 6.0 0.00 0.68 0.68 97 1009.5
20260506150704 52 351 2.0 4.0 0.00 0.68 0.68 97 1009.5
20260506150201 52 2 1.0 3.0 0.00 0.68 0.68 97 1009.6
20260506145658 52 333 6.0 7.0 0.00 0.68 0.68 97 1009.4
20260506145154 52 1 2.0 7.0 0.00 0.68 0.68 97 1009.4
20260506144653 52 328 3.0 6.0 0.00 0.68 0.68 97 1009.4
20260506144149 52 350 4.0 6.0 0.00 0.68 0.68 97 1009.4
20260506143646 52 14 3.0 7.0 0.00 0.68 0.68 98 1009.3
20260506143144 52 1 4.0 6.0 0.00 0.68 0.68 97 1009.2
20260506142643 53 339 4.0 9.0 0.00 0.68 0.68 97 1009.3
20260506142140 53 341 4.0 7.0 0.00 0.68 0.68 97 1009.2
20260506141638 53 321 8.0 10.0 0.00 0.68 0.68 97 1009.2
20260506141136 53 16 6.0 9.0 0.05 0.68 0.68 97 1009.1
20260506140633 54 14 6.0 13.0 0.05 0.68 0.68 97 1008.8
20260506140130 55 31 7.0 10.0 0.00 0.67 0.67 97 1008.6
20260506135627 57 306 10.0 16.0 0.07 0.67 0.67 97 1008.4
20260506135123 59 328 4.0 7.0 0.12 0.67 0.67 98 1008.1
20260506134620 60 317 2.0 3.0 0.05 0.66 0.66 98 1007.7
20260506134115 60 6 1.0 2.0 0.00 0.65 0.65 98 1007.3
20260506133613 60 327 0.0 2.0 0.00 0.65 0.65 98 1007.3
20260506133110 60 41 1.0 2.0 0.00 0.65 0.65 98 1007.3
20260506132608 60 252 0.0 1.0 0.00 0.65 0.65 98 1007.3
20260506132104 60 251 0.0 0.0 0.00 0.65 0.65 98 1007.2
20260506131602 60 251 0.0 1.0 0.00 0.65 0.65 98 1007.1
20260506131058 60 108 0.0 0.0 0.00 0.65 0.65 98 1007.0
20260506130555 59 123 1.0 3.0 0.00 0.65 0.65 98 1006.8
20260506130052 59 188 1.0 1.0 0.00 0.65 0.65 99 1007.1
20260506125550 59 189 0.0 2.0 0.00 0.65 0.65 99 1006.8
20260506125048 59 209 1.0 2.0 0.00 0.65 0.65 99 1006.8
20260506124545 59 239 2.0 2.0 0.00 0.65 0.65 99 1006.8
20260506124043 59 213 1.0 3.0 0.00 0.65 0.65 99 1006.8
20260506123540 59 205 1.0 3.0 0.00 0.65 0.65 99 1006.9
20260506123039 59 209 2.0 3.0 0.00 0.65 0.65 99 1006.8
20260506122535 59 67 1.0 2.0 0.00 0.65 0.65 99 1006.7
20260506122033 59 98 0.0 1.0 0.00 0.65 0.65 99 1006.7
20260506121531 59 196 2.0 2.0 0.00 0.65 0.65 99 1007.0
20260506121026 59 107 1.0 1.0 0.00 0.65 0.65 99 1006.6
20260506120525 59 142 1.0 1.0 0.00 0.65 0.65 99 1006.5
20260506120022 58 128 0.0 1.0 0.00 0.65 0.65 99 1006.3
20260506115520 58 128 2.0 2.0 0.00 0.65 0.65 99 1006.3
20260506115018 58 95 2.0 3.0 0.00 0.65 0.65 99 1005.9
20260506114515 58 123 1.0 2.0 0.00 0.65 0.65 99 1006.2
20260506114014 58 104 2.0 2.0 0.00 0.65 0.65 99 1006.2
20260506113511 58 110 1.0 3.0 0.00 0.65 0.65 99 1006.3
20260506113008 58 158 0.0 4.0 0.07 0.65 0.65 99 1006.3
20260506112505 58 111 1.0 3.0 0.00 0.64 0.64 99 1005.9
20260506112002 58 178 2.0 6.0 0.00 0.64 0.64 99 1005.8
20260506111500 58 114 2.0 3.0 0.05 0.64 0.64 99 1006.0
20260506110956 58 126 3.0 6.0 0.05 0.64 0.64 99 1005.9
20260506110454 58 128 1.0 2.0 0.07 0.63 0.63 99 1005.8
20260506105951 58 118 1.0 3.0 0.07 0.63 0.63 99 1005.9
20260506105447 58 123 1.0 3.0 0.05 0.62 0.62 99 1005.7
20260506104945 58 112 2.0 3.0 0.05 0.62 0.62 99 1005.6
20260506104443 58 164 0.0 3.0 0.07 0.61 0.61 99 1005.9
20260506103941 58 106 1.0 2.0 0.14 0.61 0.61 99 1005.9
20260506103438 58 105 1.0 2.0 0.12 0.60 0.60 99 1005.7
20260506102934 58 105 1.0 2.0 0.17 0.59 0.59 99 1005.8
20260506102433 58 105 1.0 1.0 0.12 0.57 0.57 99 1005.9
20260506101930 58 105 1.0 1.0 0.12 0.56 0.56 99 1005.8
20260506101426 58 105 0.0 1.0 0.12 0.55 0.55 99 1005.9
20260506100923 58 105 1.0 1.0 0.12 0.54 0.54 99 1005.7
20260506100421 58 105 0.0 0.0 0.17 0.53 0.53 99 1006.2
20260506095919 58 105 1.0 1.0 0.12 0.51 0.51 99 1005.9
20260506095417 58 105 0.0 0.0 0.07 0.50 0.50 99 1005.9
20260506094913 58 105 0.0 0.0 0.05 0.49 0.49 99 1006.0
20260506094412 58 105 0.0 0.0 0.12 0.49 0.49 99 1005.9
20260506093909 58 105 0.0 0.0 0.07 0.48 0.48 99 1006.2
20260506093407 58 105 0.0 1.0 0.19 0.47 0.47 99 1005.9
20260506092904 58 104 1.0 1.0 0.24 0.46 0.46 99 1006.0
20260506092402 58 105 0.0 0.0 0.17 0.44 0.44 99 1005.9
20260506091858 58 105 1.0 1.0 0.12 0.42 0.42 98 1005.9
20260506091357 58 113 1.0 2.0 0.19 0.41 0.41 98 1005.9
20260506090853 58 134 1.0 1.0 0.17 0.40 0.40 98 1005.8
20260506090351 58 135 1.0 1.0 0.05 0.38 0.38 98 1005.9
20260506085848 58 136 0.0 0.0 0.07 0.37 0.37 98 1006.0
20260506085344 58 135 0.0 0.0 0.07 0.37 0.37 98 1005.9
20260506084841 58 135 0.0 0.0 0.05 0.36 0.36 98 1005.7
20260506084338 58 136 0.0 1.0 0.05 0.36 0.36 98 1005.7
20260506083834 58 107 1.0 2.0 0.07 0.35 0.35 98 1005.4
20260506083332 58 106 2.0 2.0 0.14 0.35 0.35 98 1005.6
20260506082829 58 102 1.0 2.0 0.12 0.34 0.34 98 1005.9
20260506082325 58 91 2.0 2.0 0.12 0.33 0.33 97 1005.7
20260506081822 58 88 1.0 1.0 0.12 0.32 0.32 97 1005.9
20260506081320 58 88 0.0 0.0 0.17 0.31 0.31 97 1005.9
20260506080817 58 87 1.0 1.0 0.24 0.30 0.30 96 1006.2
20260506080313 58 88 0.0 1.0 0.19 0.28 0.28 96 1006.0
20260506073258 59 341 0.0 2.0 0.28 0.18 0.18 92 1006.6
20260506072754 59 336 2.0 2.0 0.28 0.16 0.16 91 1006.5
20260506072252 59 315 2.0 4.0 0.19 0.13 0.13 91 1006.6
20260506071749 59 267 2.0 2.0 0.14 0.11 0.11 91 1006.5
20260506071247 59 95 1.0 2.0 0.07 0.10 0.10 90 1006.0
20260506070744 59 132 2.0 2.0 0.00 0.09 0.09 90 1006.0
20260506070241 59 102 1.0 2.0 0.00 0.09 0.09 90 1005.9
20260506062218 62 98 4.0 6.0 0.00 0.05 0.05 83 1006.4
20260506061714 60 178 2.0 4.0 0.00 0.05 0.05 83 1006.6
20260506061211 60 132 3.0 6.0 0.05 0.05 0.05 87 1006.6
20260506060710 59 44 0.0 3.0 0.05 0.05 0.05 91 1006.4
20260506060206 59 87 2.0 3.0 0.00 0.04 0.04 94 1006.6
20260506051138 59 90 1.0 1.0 0.00 0.03 0.03 93 1006.8
20260506050637 59 90 1.0 2.0 0.00 0.03 0.03 93 1007.0
20260506050134 59 139 0.0 0.0 0.05 0.03 0.03 91 1007.2
20260506045126 60 100 1.0 2.0 0.12 0.03 0.03 89 1007.1
20260506044625 60 86 2.0 2.0 0.07 0.02 0.02 89 1007.1
20260506044121 59 76 2.0 2.0 0.00 0.01 0.01 92 1007.2
20260506043619 59 140 0.0 1.0 0.00 0.01 0.01 93 1007.3
20260506043117 59 140 0.0 1.0 0.00 0.01 0.01 93 1007.7
20260506042615 59 141 0.0 0.0 0.00 0.01 0.01 92 1007.3
20260506042113 59 141 1.0 1.0 0.00 0.01 0.01 92 1007.0
20260506041612 59 144 1.0 1.0 0.00 0.01 0.01 91 1007.0
20260506041108 60 76 0.0 1.0 0.05 0.01 0.01 89 1006.8
20260506040606 60 75 0.0 1.0 0.05 0.01 0.01 87 1007.1
20260506035559 60 136 1.0 1.0 0.00 0.00 0.00 87 1007.4
20260506035055 60 137 0.0 1.0 0.00 0.00 0.00 88 1007.5
20260506034553 60 135 1.0 2.0 0.00 0.00 0.00 86 1007.3
20260506034050 60 137 0.0 1.0 0.00 0.00 0.00 88 1007.4
20260506033547 60 137 0.0 0.0 0.00 0.00 0.00 87 1007.5
20260506033044 61 137 0.0 0.0 0.00 0.00 0.00 85 1007.1
20260506032541 61 137 0.0 0.0 0.00 0.00 0.00 83 1007.4
20260506032038 61 138 0.0 0.0 0.00 0.00 0.00 84 1007.5
20260506031536 61 139 0.0 2.0 0.00 0.00 0.00 84 1007.5
20260506031032 60 128 2.0 2.0 0.00 0.00 0.00 83 1007.5
20260506030531 60 97 2.0 3.0 0.00 0.00 0.00 86 1007.5
20260506030028 61 199 1.0 3.0 0.00 0.00 0.00 87 1007.6
20260506025525 61 118 1.0 2.0 0.00 0.00 0.00 82 1007.7
20260506025020 62 95 3.0 3.0 0.00 0.00 0.00 77 1007.8
20260506024518 62 77 1.0 2.0 0.00 0.00 0.00 77 1008.2
20260506024014 62 76 0.0 0.0 0.00 0.00 0.00 77 1008.2
20260506023510 63 76 0.0 0.0 0.00 0.00 0.00 76 1008.3
20260506023008 64 77 0.0 1.0 0.00 0.00 0.00 74 1007.9
20260506022505 65 77 0.0 1.0 0.00 0.00 0.00 71 1007.8
20260506022002 65 76 1.0 2.0 0.00 0.00 0.00 64 1007.8
20260506021500 65 86 1.0 2.0 0.00 0.00 0.00 64 1007.9
20260506020957 65 20 1.0 2.0 0.00 0.00 0.00 62 1008.2
20260506020454 66 2 1.0 1.0 0.00 0.00 0.00 67 1008.3
20260506015951 67 96 0.0 0.0 0.00 0.00 0.00 63 1007.8
20260506015449 68 96 0.0 0.0 0.00 0.00 0.00 54 1007.9
20260506014945 68 96 1.0 2.0 0.00 0.00 0.00 54 1007.7
20260506014442 68 93 1.0 2.0 0.00 0.00 0.00 54 1007.7
20260506013939 68 85 2.0 2.0 0.00 0.00 0.00 53 1007.6
20260506013437 68 90 2.0 2.0 0.00 0.00 0.00 54 1007.5
20260506012933 68 95 1.0 2.0 0.00 0.00 0.00 54 1007.6
20260506012430 69 75 3.0 3.0 0.00 0.00 0.00 54 1007.6
20260506011926 69 135 1.0 1.0 0.00 0.00 0.00 52 1007.9
20260506011424 69 94 2.0 2.0 0.00 0.00 0.00 52 1007.5
20260506010920 69 91 2.0 3.0 0.00 0.00 0.00 52 1007.6
20260506010420 69 106 3.0 3.0 0.00 0.00 0.00 51 1007.9
20260506005915 69 102 2.0 3.0 0.00 0.00 0.00 51 1007.9
20260506005414 69 96 2.0 2.0 0.00 0.00 0.00 51 1008.0
20260506004908 70 101 1.0 3.0 0.00 0.00 0.00 51 1007.8
20260506004407 70 89 1.0 3.0 0.00 0.00 0.00 50 1007.9
20260506003902 70 106 2.0 3.0 0.00 0.00 0.00 50 1007.7
20260506003358 70 106 2.0 4.0 0.00 0.00 0.00 52 1007.9
20260506002855 70 103 1.0 1.0 0.00 0.00 0.00 52 1008.1
20260506002351 71 83 2.0 2.0 0.00 0.00 0.00 49 1008.0
20260506001847 71 201 2.0 6.0 0.00 0.00 0.00 48 1008.0
20260506001344 71 208 2.0 3.0 0.00 0.00 0.00 49 1008.1
20260506000841 71 194 3.0 11.0 0.00 0.00 0.00 48 1008.3
20260506000340 71 146 2.0 7.0 0.00 0.00 0.00 50 1008.6
20260505235835 71 233 4.0 7.0 0.00 0.00 0.00 51 1008.5
20260505235333 71 243 2.0 4.0 0.00 0.00 0.00 52 1008.4
20260505234830 71 199 7.0 14.0 0.00 0.00 0.00 51 1008.5
20260505234328 71 92 3.0 4.0 0.00 0.00 0.00 55 1008.4
20260505233824 71 223 1.0 3.0 0.00 0.00 0.00 54 1008.3
20260505233322 71 82 2.0 4.0 0.00 0.00 0.00 53 1008.2
20260505232819 72 190 1.0 2.0 0.00 0.00 0.00 53 1008.0
20260505232317 72 118 2.0 3.0 0.00 0.00 0.00 52 1008.3
20260505231813 72 189 2.0 3.0 0.00 0.00 0.00 52 1008.1
20260505231312 72 56 1.0 2.0 0.00 0.00 0.00 52 1008.2
20260505230810 72 137 0.0 3.0 0.00 0.00 0.00 52 1008.3
20260505230306 72 226 1.0 4.0 0.00 0.00 0.00 51 1008.3
20260505225803 73 122 2.0 3.0 0.00 0.00 0.00 52 1008.3
20260505225300 73 258 1.0 4.0 0.00 0.00 0.00 50 1008.3
20260505224755 73 323 2.0 3.0 0.00 0.00 0.00 50 1008.2
20260505224253 73 269 4.0 6.0 0.00 0.00 0.00 49 1008.3
20260505223750 73 230 0.0 3.0 0.00 0.00 0.00 51 1008.3
20260505223247 73 193 3.0 6.0 0.00 0.00 0.00 49 1008.4
20260505222743 73 238 3.0 3.0 0.00 0.00 0.00 49 1008.4
20260505222239 73 207 1.0 3.0 0.00 0.00 0.00 50 1008.4
20260505221736 74 223 1.0 4.0 0.00 0.00 0.00 49 1008.5
20260505221233 74 222 4.0 6.0 0.00 0.00 0.00 50 1008.5
20260505220729 74 174 1.0 4.0 0.00 0.00 0.00 49 1008.5
20260505220227 74 227 3.0 8.0 0.00 0.00 0.00 48 1008.5
20260505215725 74 208 2.0 7.0 0.00 0.00 0.00 49 1008.5
20260505215223 74 218 3.0 6.0 0.00 0.00 0.00 47 1008.6
20260505214720 74 108 6.0 10.0 0.00 0.00 0.00 47 1008.7
20260505214218 74 187 3.0 7.0 0.00 0.00 0.00 47 1008.6
20260505213715 74 204 4.0 11.0 0.00 0.00 0.00 47 1008.5